Change the Weather History Date:

Saturday, February 9, 2013

  Actual Average Record
Temperature  
Mean Temperature 66 °F -  
Max Temperature 71 °F 63 °F 81 °F (1962)
Min Temperature 62 °F 44 °F 28 °F (1973)
Cooling Degree Days 2    
Growing Degree Days 16 (Base 50)    
Moisture  
Dew Point 63 °F    
Average Humidity 88    
Maximum Humidity 96    
Minimum Humidity 81    
Precipitation  
Precipitation 0.00 in - - ()
Sea Level Pressure  
Sea Level Pressure 29.95 in    
Wind  
Wind Speed 12 mph (SE)    
Max Wind Speed 18 mph    
Max Gust Speed 23 mph    
Visibility 7 miles    
Events Rain    
Averages and records for this station are not official NWS values.
T = Trace of Precipitation, MM = Missing Value Source: NWS Daily Summary

Daily Weather History Graph

Daily Weather History Graph

Search for Another Location

Airport or City:

Trip Planner

Search our weather history database for the weather conditions in past years. The results will help you decide how hot, cold, wet, or windy it might be!

Date:

Astronomy

Feb. 09, 2013 Rise Set
Actual Time 7:10 AM CST 6:14 PM CST
Civil Twilight 6:46 AM CST 6:39 PM CST
Nautical Twilight 6:18 AM CST 7:06 PM CST
Astronomical Twilight 5:50 AM CST 7:34 PM CST
Moon 6:23 AM CST (2/9) 5:55 PM CST (2/9)
Length of Visible Light 11h 53m
Length of Day
11h 04m
Waning Crescent, 0% of the Moon is Illuminated
Feb 9
Waning Crescent
Feb 10
New
Feb 17
First Quarter
Feb 25
Full
Mar 4
Last Quarter

Hourly Weather History & Observations

Time (CST) Temp. Dew Point Humidity Pressure Visibility Wind Dir Wind Speed Gust Speed Precip Events Conditions
12:53 AM 62.1 °F 57.9 °F 86% 30.07 in 10.0 mi ESE 12.7 mph - N/A   Clear
1:19 AM 62.6 °F 59.0 °F 88% 30.07 in 10.0 mi ESE 13.8 mph - N/A   Mostly Cloudy
1:51 AM 62.6 °F 57.2 °F 82% 30.06 in 10.0 mi ESE 13.8 mph - N/A   Scattered Clouds
1:53 AM 63.0 °F 57.9 °F 84% 30.07 in 10.0 mi ESE 15.0 mph - N/A   Scattered Clouds
2:21 AM 62.6 °F 57.2 °F 82% 30.06 in 10.0 mi ESE 15.0 mph - N/A   Mostly Cloudy
2:32 AM 62.6 °F 57.2 °F 82% 30.05 in 10.0 mi ESE 13.8 mph - N/A   Scattered Clouds
2:53 AM 63.0 °F 57.9 °F 84% 30.06 in 10.0 mi ESE 12.7 mph - N/A   Mostly Cloudy
3:53 AM 63.0 °F 59.0 °F 87% 30.05 in 10.0 mi ESE 9.2 mph - N/A   Overcast
4:12 AM 62.6 °F 59.0 °F 88% 30.04 in 10.0 mi ESE 8.1 mph - N/A   Scattered Clouds
4:53 AM 64.0 °F 59.0 °F 84% 30.04 in 10.0 mi East 8.1 mph - N/A   Overcast
5:53 AM 64.0 °F 60.1 °F 87% 30.04 in 10.0 mi ENE 6.9 mph - N/A   Overcast
6:20 AM 64.4 °F 60.8 °F 88% 30.03 in 9.0 mi ENE 8.1 mph - N/A   Overcast
6:53 AM 64.0 °F 60.1 °F 87% 30.04 in 10.0 mi East 9.2 mph - N/A   Overcast
7:53 AM 64.9 °F 61.0 °F 87% 30.03 in 8.0 mi East 10.4 mph - N/A   Overcast
8:32 AM 66.2 °F 60.8 °F 83% 30.03 in 8.0 mi East 9.2 mph - N/A   Overcast
8:53 AM 66.0 °F 61.0 °F 84% 30.04 in 9.0 mi East 10.4 mph - N/A   Overcast
9:53 AM 66.0 °F 63.0 °F 90% 30.04 in 6.0 mi East 9.2 mph - 0.00 in Rain Light Rain
10:53 AM 66.0 °F 63.0 °F 90% 30.04 in 6.0 mi East 12.7 mph - 0.00 in   Overcast
11:53 AM 68.0 °F 64.0 °F 87% 30.01 in 6.0 mi SE 9.2 mph - 0.00 in Rain Light Rain
12:53 PM 71.1 °F 64.9 °F 81% 29.96 in 8.0 mi SE 17.3 mph - 0.00 in   Overcast
1:53 PM 71.1 °F 64.9 °F 81% 29.92 in 8.0 mi SE 16.1 mph - N/A   Overcast
2:53 PM 71.1 °F 66.0 °F 84% 29.89 in 7.0 mi SE 16.1 mph - N/A   Overcast
3:45 PM 69.8 °F 66.2 °F 88% 29.87 in 7.0 mi SE 15.0 mph - N/A   Overcast
3:53 PM 70.0 °F 66.0 °F 87% 29.87 in 7.0 mi SE 15.0 mph - N/A   Overcast
4:53 PM 70.0 °F 66.9 °F 90% 29.85 in 6.0 mi SE 15.0 mph 21.9 mph N/A   Overcast
5:53 PM 69.1 °F 66.9 °F 93% 29.82 in 5.0 mi SE 18.4 mph - N/A   Overcast
6:53 PM 69.1 °F 66.9 °F 93% 29.83 in 6.0 mi SSE 11.5 mph 19.6 mph N/A   Overcast
7:19 PM 69.8 °F 66.2 °F 88% 29.83 in 6.0 mi SSE 15.0 mph 20.7 mph N/A   Overcast
7:53 PM 69.1 °F 66.9 °F 93% 29.84 in 6.0 mi SSE 13.8 mph 20.7 mph N/A   Overcast
8:53 PM 69.1 °F 66.9 °F 93% 29.86 in 5.0 mi SSE 10.4 mph - N/A   Overcast
9:04 PM 69.8 °F 66.2 °F 88% 29.85 in 5.0 mi SE 12.7 mph - N/A   Overcast
9:20 PM 69.8 °F 66.2 °F 88% 29.85 in 5.0 mi SE 12.7 mph - N/A   Overcast
9:35 PM 69.8 °F 66.2 °F 88% 29.86 in 5.0 mi SE 10.4 mph - N/A   Overcast
9:53 PM 69.1 °F 66.9 °F 93% 29.87 in 5.0 mi SSE 11.5 mph - N/A   Overcast
10:53 PM 69.1 °F 68.0 °F 96% 29.85 in 5.0 mi SSE 11.5 mph - N/A   Overcast
11:06 PM 69.8 °F 68.0 °F 94% 29.84 in 5.0 mi SSE 12.7 mph - N/A   Overcast
11:28 PM 69.8 °F 68.0 °F 94% 29.84 in 5.0 mi SSE 12.7 mph 20.7 mph N/A   Overcast
11:45 PM 69.8 °F 68.0 °F 94% 29.84 in 5.0 mi SSE 11.5 mph 23.0 mph N/A   Overcast
11:53 PM 70.0 °F 68.0 °F 93% 29.85 in 5.0 mi SSE 13.8 mph - N/A   Overcast